ONEWEB-0202 (48224 NORAD) Tracking and Keplerian Element Data

This shows tracking and keplerian element data for the satellite.

Feedback or suggestion? Click here.




ElementValue
Catalog48224
NameONEWEB-0202
Epoch Orbit178
Epoch Day136.75001157
Epoch Year2021
RAAN305.7474
Inclination87.4192
Eccentricity0.0010216
Argument of Perigee184.4409
Mean Anonmoly137.3317
Mean Motion15.3614241
Decay Rate-0.01364729
L11 48224U 21031Q 21136.75001157 -.01364729 00000-0 -42504-1 0 9996
L22 48224 87.4192 305.7474 0010216 184.4409 137.3317 15.36142410 1781

Live tracking and technical data element details for ONEWEB-0202 (NORAD 48224). ONEWEB-0202 can be tracked NOW for your location showing map with azimuth and elevation plus other details from your city location.

Track the satellite on the map from your city or location and see movement details for azimuth, elevation, latitude, longitude, range, height, and movement on the map or in text.







IsCatalogInMostPopularTable: catalog: 48224, numindb: 6
Update: records affected: 1



GetName: 48224 ONEWEB-0202

Hit Count: updated at: Mon, 17 May 2021 15:58:31 GMT